Temp
15 15 16 16 15 16 18 19 19 19 19 20 20 19 19 19 20 20 20 20 20 20 20 20 20 20 20 20 20 20 20 20
14 14 14 15 15 15 15 16 16 16 16 16 19 19 19 19 19 19 20 20 20 20 20 20 20 19 19 19 19 19 20 20
14 13 13 13 15 15 15 15 15 15 15 15 16 16 17 18 18 20 20 20 20 20 20 20 20 20 19 19 19 19 19 20
14 12 12 12 13 13 14 14 14 14 15 15 15 14 15 16 17 18 19 20 20 20 20 20 20 19 19 19 19 19 19 20
13 12 11 11 11 12 12 12 13 13 13 14 13 13 13 14 15 16 17 19 19 19 19 20 20 19 19 19 20 20 19 20
12 11 10 10 10 11 11 11 12 12 12 12 12 12 11 11 12 13 14 16 17 19 19 20 19 19 19 19 20 20 20 20
11 11 10 10 10 10 10 10 11 11 11 11 11 11 10 10 10 11 12 13 15 17 18 19 20 20 19 19 20 21 21 21
11 11 10 9 9 9 10 10 10 10 10 11 11 10 10 10 10 10 10 11 13 14 15 16 17 19 19 19 19 20 21 21
11 11 10 9 9 9 9 10 10 9 10 10 10 10 9 9 9 9 10 10 11 11 13 15 17 19 19 19 19 19 20 21
11 10 10 9 9 9 9 10 9 10 9 9 9 8 7 7 7 7 8 8 9 10 11 13 14 16 19 19 19 19 19 20
11 10 9 9 9 9 9 9 9 8 8 8 8 7 6 5 5 5 5 5 6 7 9 11 13 14 17 18 19 18 19 19
11 10 9 9 9 8 9 8 8 8 8 7 6 5 5 4 3 3 3 3 5 6 7 8 9 12 14 16 16 18 18 19
10 10 9 9 8 8 8 7 7 7 6 5 4 4 3 3 3 3 3 3 4 4 5 6 7 8 13 14 15 16 18 18
10 9 9 8 7 7 6 6 6 5 4 3 3 2 2 2 2 2 2 3 3 4 4 5 6 7 9 12 13 16 17 17
9 9 9 8 7 6 4 5 4 4 3 2 1 1 1 1 1 1 1 1 2 3 4 4 5 6 8 9 13 15 16 18
8 8 8 7 6 4 4 3 3 3 2 1 1 0 0 0 -0 -1 -1 -0 0 1 3 4 5 6 8 9 10 12 14 16
7 8 8 6 6 4 3 2 2 1 1 0 -0 -0 -0 -1 -1 -2 -1 -1 -0 1 1 2 3 5 6 8 9 10 13 15
6 7 7 6 5 4 2 1 1 0 -0 -1 -1 -1 -1 -1 -2 -2 -2 -1 -1 0 1 2 3 4 6 7 8 10 12 14
5 5 5 4 4 3 1 0 -0 -1 -1 -1 -2 -2 -2 -2 -2 -3 -2 -2 -1 -1 1 2 3 4 5 6 7 9 11 12
3 4 3 3 3 2 1 -1 -1 -2 -2 -2 -3 -3 -3 -3 -3 -3 -3 -3 -2 -1 0 3 4 5 5 6 7 9 11 12
Height
803 802 801 800 801 799 799 797 797 797 795 793 792 792 791 790 790 790 790 790 790 789 790 790 790 789 789 789 788 787 785 785
805 803 802 800 801 801 799 798 798 797 796 794 791 790 789 788 788 787 786 786 786 786 786 787 787 787 787 787 786 785 783 781
807 805 804 802 803 800 800 800 799 797 795 794 790 789 787 786 786 785 784 782 782 783 783 783 783 783 783 784 784 783 781 780
809 807 805 803 802 801 801 799 800 798 796 792 792 789 787 786 784 782 781 780 778 778 778 778 778 778 778 778 779 780 780 779
811 809 807 805 802 802 800 800 798 797 797 794 792 790 787 784 783 781 779 777 777 775 772 771 772 772 772 774 773 774 775 775
813 810 807 805 803 803 801 800 799 798 796 795 792 789 787 785 783 780 778 776 773 772 770 768 768 767 767 768 768 767 768 771
814 812 809 807 805 803 802 800 799 798 796 796 793 789 787 785 782 780 777 775 773 770 768 765 763 762 762 763 762 759 760 761
814 813 811 809 807 805 803 801 799 797 796 795 793 790 787 784 782 779 776 774 771 768 765 762 759 757 755 755 755 754 753 753
815 814 812 810 809 806 804 802 800 797 796 794 792 790 787 784 780 778 776 772 768 765 762 759 756 753 749 748 748 747 748 748
817 816 814 813 810 807 805 803 801 799 796 794 792 789 786 783 780 777 774 770 768 764 761 757 754 750 745 742 740 741 740 740
818 817 815 814 811 809 806 804 801 799 796 794 791 788 785 783 780 776 772 769 766 763 760 757 752 747 743 739 735 734 734 734
819 818 817 814 812 809 807 804 802 799 797 794 790 787 785 781 779 776 772 768 765 763 759 754 751 747 741 736 731 729 726 726
820 819 817 814 812 809 806 804 802 799 796 792 789 787 783 780 777 773 770 766 762 761 757 753 747 746 739 733 726 724 719 718
820 819 817 815 814 812 810 808 804 801 797 793 790 787 783 779 775 771 767 762 759 757 755 750 746 746 744 735 725 719 711 711
821 820 817 816 816 814 811 808 804 800 797 793 790 787 782 778 774 770 765 760 756 753 750 747 742 741 741 742 724 713 709 703
822 821 819 817 817 814 812 809 806 803 800 796 791 786 781 777 773 768 763 758 753 749 746 742 739 735 734 731 728 721 711 701
822 821 820 819 818 816 814 812 809 806 801 796 789 784 780 776 771 765 759 753 748 744 740 736 734 731 729 726 721 717 708 704
823 821 820 821 818 817 816 813 810 806 802 795 788 783 778 774 767 761 755 749 743 738 733 730 727 723 722 720 716 713 704 699
824 824 822 821 818 817 817 816 812 808 803 796 788 782 778 772 765 758 751 744 738 732 727 722 717 715 713 712 709 705 703 699
826 824 823 822 819 818 818 816 812 810 805 798 790 786 780 774 767 759 750 742 734 728 721 714 708 704 703 703 701 698 696 694
Wind_Speed
16 16 16 16 18 19 16 15 15 15 15 14 13 12 13 14 14 15 19 21 21 22 22 21 20 20 19 19 19 18 18 18
20 19 18 18 18 18 19 19 19 20 19 18 13 10 12 12 14 14 18 19 22 24 23 23 22 22 22 21 21 20 20 20
20 21 21 20 17 19 20 20 18 18 19 22 19 16 17 15 17 17 18 19 22 23 25 26 25 25 25 24 23 23 22 19
19 21 21 21 17 21 17 18 18 19 19 20 25 21 20 19 19 18 19 19 20 23 26 27 28 29 27 25 27 28 23 21
17 19 19 20 21 18 19 19 19 20 17 22 21 24 20 21 21 20 20 18 21 22 22 25 28 33 30 27 27 30 28 25
17 18 19 20 20 18 19 20 19 18 22 20 22 21 24 23 22 23 22 22 23 22 23 23 25 25 29 29 29 28 27 27
17 17 20 21 21 21 21 20 19 22 20 20 21 24 22 24 25 24 24 24 23 26 25 25 25 29 29 29 34 31 27 30
16 17 19 20 21 20 20 19 21 21 21 21 21 21 22 23 24 25 26 25 26 27 28 30 28 26 29 33 33 37 33 30
15 16 18 20 19 19 18 19 20 22 21 22 23 23 23 23 24 25 25 26 27 27 27 27 29 27 26 27 35 37 37 34
14 14 16 19 17 17 18 18 21 20 22 23 23 22 24 26 25 25 25 27 26 26 26 27 28 29 26 28 30 35 34 40
13 14 16 19 17 18 18 19 20 22 22 22 22 26 25 27 27 28 32 31 28 27 27 25 27 28 29 27 29 31 36 33
12 13 15 17 17 19 18 19 21 21 22 23 23 27 24 23 26 29 28 27 28 27 28 27 27 27 29 27 28 28 33 39
12 14 16 17 19 20 21 22 23 22 23 26 27 26 29 28 26 24 23 24 25 26 29 28 29 27 26 26 30 31 27 32
12 14 16 16 19 18 19 21 20 20 24 25 24 29 26 26 28 25 24 24 24 24 24 24 26 24 15 21 8 20 29 30
12 14 14 16 18 18 21 19 20 20 24 24 27 26 26 25 27 28 27 27 25 23 23 23 22 24 26 12 4 8 4 22
12 13 13 15 17 18 20 21 22 23 23 25 25 26 25 25 27 29 29 28 27 25 24 24 23 22 22 27 30 27 7 6
12 13 13 15 16 18 18 19 20 22 23 24 25 26 26 26 29 30 27 27 27 28 28 27 27 26 24 25 26 27 29 13
11 12 13 15 16 17 18 20 20 23 25 24 26 26 29 28 32 31 28 27 26 27 28 28 29 28 27 28 27 15 11 10
11 13 13 15 16 16 17 18 19 21 24 25 27 29 31 31 34 34 32 30 29 28 27 29 28 29 29 29 31 33 30 29
11 12 13 15 17 16 16 17 19 19 20 24 26 28 30 32 33 33 33 32 31 28 26 29 29 32 30 30 31 32 30 33
Wind_Direction
34 29 23 26 17 3 6 4 357 351 349 343 342 340 328 314 303 295 285 277 272 270 268 264 262 260 259 258 259 260 262 261
19 21 16 21 21 352 12 1 7 356 351 343 333 345 317 316 320 299 281 276 277 269 266 265 263 262 263 263 261 258 256 260
20 15 11 15 10 359 11 357 359 347 346 340 338 336 334 328 315 316 302 290 275 274 270 265 264 264 262 261 258 255 255 258
20 14 9 9 2 8 359 352 350 343 353 323 333 338 328 330 318 315 320 307 291 274 268 266 263 262 262 259 254 251 248 245
17 12 7 7 4 2 352 352 345 350 335 332 342 332 333 323 324 322 314 306 300 292 280 270 263 257 255 245 258 249 241 236
13 9 6 5 9 357 353 346 345 341 334 340 336 334 329 329 327 320 317 311 301 303 292 282 261 258 248 245 245 244 236 237
12 8 5 4 1 356 350 350 343 337 338 334 331 330 328 326 322 321 316 311 307 303 298 292 279 262 250 247 245 244 237 234
11 13 7 2 359 353 351 345 339 339 334 332 333 330 326 322 319 318 316 313 310 306 300 295 291 272 260 251 249 251 246 243
14 10 6 2 357 352 349 343 340 335 334 333 333 330 326 324 320 316 313 311 309 309 305 296 292 281 264 263 252 252 253 248
15 11 5 359 356 353 346 343 341 339 337 334 333 334 335 332 323 319 318 318 310 307 304 299 291 288 279 253 256 248 248 251
14 11 5 358 356 354 348 346 345 341 336 335 332 333 330 325 323 318 313 312 314 314 305 301 294 291 284 283 252 249 243 244
14 12 6 0 359 354 351 348 344 340 341 338 341 338 333 328 323 314 315 310 300 300 307 306 304 292 291 285 283 257 244 242
13 12 6 6 4 355 354 350 342 345 342 339 341 335 336 329 318 314 308 299 297 298 299 304 302 308 295 284 286 278 254 236
12 12 8 12 5 358 358 345 345 345 344 342 339 337 336 334 327 316 311 303 295 291 291 288 291 290 295 296 275 275 251 245
11 12 8 13 5 2 357 353 351 351 348 344 340 337 338 337 334 328 322 319 309 295 287 282 281 287 282 272 264 243 262 234
13 9 10 12 8 11 4 359 350 347 342 338 341 342 340 339 337 333 324 317 307 300 295 284 275 272 278 272 266 280 287 253
14 10 14 14 11 15 7 358 352 343 343 340 344 347 343 344 338 333 325 318 307 297 291 283 278 275 264 277 276 281 282 259
13 13 18 14 13 14 10 2 352 350 345 348 351 350 346 344 342 338 331 327 317 306 294 280 273 265 262 263 268 257 277 268
13 12 19 14 16 15 13 2 358 352 349 351 354 354 350 346 347 345 341 338 333 321 303 290 268 262 259 255 259 261 262 272
16 15 17 14 17 14 11 6 2 353 352 355 1 356 352 349 352 353 351 351 348 340 325 312 279 263 255 253 260 264 264 262